AirNav   Free Bose Alto or Rondo audio sunglasses
 
 1109 users online  

NC18 Rat Landing Seaplane Base
Ahoskie, North Carolina, USA

GOING TO AHOSKIE?


FAA INFORMATION EFFECTIVE 05 NOVEMBER 2020

Location

FAA Identifier: NC18
Lat/Long: 36-23-22.0000N 076-54-41.0000W
36-23.366667N 076-54.683333W
36.3894444,-76.9113889
(estimated)
Elevation: 14 ft. / 4 m (estimated)
From city: 7 miles NE of AHOSKIE, NC
Time zone: UTC -5 (UTC -4 during Daylight Saving Time)
Zip code: 27986

Seaplane Base Operations

Seaplane Base use: Private use. Permission required prior to landing
Activation date: 12/2010
Control tower: no
ARTCC: WASHINGTON CENTER
FSS: RALEIGH FLIGHT SERVICE STATION
Attendance: UNATNDD
Segmented circle: no

Seaplane Base Communications

WX AWOS-3 at ASJ (14 nm SW): 119.075 (252-345-2967)
WX AWOS-3PT at FKN (19 nm N): 124.675 (757-562-8765)

Nearby radio navigation aids

VOR radial/distance  VOR name  Freq  Var
CVIr306/2.2COFIELD VORTAC114.6009W
FKNr175/20.1FRANKLIN VORTAC110.6009W
ECGr290/36.4ELIZABETH CITY VOR/DME112.5007W

 
NDB name  Hdg/Dist  Freq  Var  ID
WOODVILLE294/30.625410WLLW .-.. .-.. .--
WAKEFIELD184/35.927411WAKQ .- -.- --.-

Seaplane Base Services

Fuel available: 100LL

Runway Information

Runway 12W/30W

Dimensions: 7300 x 500 ft. / 2225 x 152 m
Surface: water
RUNWAY 12W  RUNWAY 30W
Traffic pattern: leftleft

Seaplane Base Ownership and Management from official FAA records

Ownership: Privately-owned
Owner: HENRY JOYNER
327B TUSCARORA RD
WINTON, NC 27986
Phone 252-395-0822
Manager: HENRY JOYNER
327B TUSCARORA RD
WINTON, NC 27986
Phone 252-395-0822

Seaplane Base Operational Statistics

Aircraft based on the field: 1
Single engine airplanes: 1
    
Aircraft operations: avg 25/month *
98% transient general aviation
2% military
* for 12-month period ending 25 January 2009

Additional Remarks

FOR CD CTC WASHINGTON ARTCC AT 703-771-3587.

Instrument Procedures

There are no published instrument procedures at NC18.

Some nearby airports with instrument procedures:

KASJ - Tri-County Airport at Henry Joyner Field (14 nm SW)
KFKN - Franklin Regional Airport (19 nm N)
KSFQ - Suffolk Executive Airport (23 nm NE)
KEDE - Northeastern Regional Airport (27 nm SE)
KPVG - Hampton Roads Executive Airport (32 nm NE)
 
Loc | Ops | Rwys | IFR | FBO | Links
Com | Nav | Svcs | Stats | Notes
Aerial photo
No photo
 
Sectional chart

 
Airport distance calculator
Flying to Rat Landing Seaplane Base? Find the distance to fly.

From to NC18

Sunrise and sunset
Times for 28-Nov-2020
 Local
(UTC-5)
 Zulu
(UTC)
Morning civil twilight06:3211:32
Sunrise07:0012:00
Sunset16:5221:52
Evening civil twilight17:2022:20

Current date and time
Zulu (UTC)  28-Nov-2020 18:23:55
Local (UTC-5)  28-Nov-2020 13:23:55
 
METAR
KASJ 
14nm SW 
281755Z AUTO 32005KT 10SM SCT028 17/09 A3005 RMK AO2 T01670089 10167 20073
KFKN 
19nm N 
281755Z AUTO 32005KT 10SM OVC008 12/12 A3007 RMK AO2 T01230120 10124 20089
KSFQ 
23nm NE 
281755Z AUTO 32004KT 10SM OVC014 14/13 A3006 RMK AO2 T01400129 10143 20112
TAF
KECG 
36nm E 
281722Z 2818/2918 26004KT P6SM SKC FM282200 VRB05KT P6SM SKC FM290500 33004KT P6SM SCT007 FM291000 VRB03KT 4SM BR SCT004 BKN007 FM291400 08005KT P6SM SKC
KNGU 
44nm NE 
2723/2823 VRB04KT 8000 BR FEW011 SCT030 SCT250 QNH2996INS TEMPO 2800/2806 4800 BR BKN011 OVC030 TEMPO 2807/2813 1600 BR BKN010 OVC030 FM281500 36009KT 9999 SCT030 BKN250 QNH3000INS T10/2811Z T17/2819Z AMD 2358 FN00062
NOTAMs
Click for the latest NOTAMs
NOTAMs are issued by the DoD/FAA and will open in a separate window not controlled by AirNav.

 

 
 

Would you like to see your business listed on this page?

 If your business provides an interesting product or service to pilots, flight crews, aircraft, or users of the Rat Landing Seaplane Base, you should consider listing it here.  To start the listing process, click on the button below
 
Add a business
 

Other Pages about Rat Landing Seaplane Base

Update a link
 
Copyright © AirNav, LLC. All rights reserved. Privacy Policy  Contact